スペースウォッチ彗星

C/2013 TW5 ( Spacewatch )

English version
Home page
Updated on November 15, 2021

---------------------------------------------------------------------

・ プロフィール

発見日 2013年10月3日
発見光度 19.6等
発見者 T. H. Bressi (Spacewatch)

・ 写真集

・ 軌道要素

Epoch 2014 Aug. 11.0 TT = JDT 2456880.5
T 2014 Aug. 17.83908 TT                                 MPCW
q   5.8305727            (2000.0)            P               Q
z  +0.0023499      Peri.  190.39186     -0.84977772     -0.40535030
 +/-0.0000006      Node   319.70476     +0.51328046     -0.49062536
e   0.9862985      Incl.   31.40511     +0.12008747     -0.77134810
From 413 observations 2013 Oct. 3-2017 Feb. 6, mean residual 0".4.

・ 光度変化

        m1 = -2.2 + 5 logΔ + 20.0 log r(t - 150)  [   ,200]  (              〜2015年 3月 5日)
        m1 =  5.5 + 5 logΔ + 10.0 log r(t - 200)  [200,   ]  (2015年 3月 5日〜              )

---------------------------------------------------------------------

軌道要素はM.P.E.C. 2017-J52に掲載されたものです。
光度グラフはComet for Windowsで作成したものです。

---------------------------------------------------------------------

Copyright(C) Seiichi Yoshida (comet@aerith.net). All rights reserved.